Location: Unspecified
(0.0000°N, 0.0000°E)
Time: 12:54:54
(UTC+00:00)

deb OV3-4 - Pass Details

Date: 20 June 2025
Orbit: 581 x 4212 km, 40.6° (Epoch: 19 July)

Event Time Altitude Azimuth Distance (km) Brightness Sun altitude
Rises 21:50:21 0° 305° (NW) 8,396 ? -50.4°
Reaches altitude 10° 21:56:19 10° 302° (WNW) 7,410 ? -51.6°
Enters shadow 22:18:57 57° 245° (WSW) 3,931 ? -55.8°
